Location: White Sands National Monument
(32.8140°N, 106.2665°W)
Time: 05:46:07
(UTC-06:00)

Daily predictions for brighter satellites

Satellite Brightness Start Highest point End
(mag) Time Altitude Azimuth Time Altitude Azimuth Time Altitude Azimuth
CZ-4C R/B 3.7 00:12:00 29° NE 00:12:00 29° NE 00:14:45 10° NNE
H-2A R/B 4.3 00:18:56 16° WNW 00:18:56 16° WNW 00:20:44 10° NW
Cosmos 1943 Rocket 3.9 00:25:10 10° NW 00:27:52 24° WNW 00:27:52 24° WNW
NOSS 3-2 (C) 4.2 00:39:24 50° NNE 00:39:24 50° NNE 00:44:10 10° NNE
CZ-2C R/B 4.2 00:54:41 10° NNE 00:57:38 31° NE 00:57:38 31° NE
Cosmos 2344 3.6 01:27:26 73° WNW 01:27:26 73° WNW 01:35:49 10° NNE
Cosmos 1980 Rocket 4.0 01:35:31 10° N 01:40:00 24° ENE 01:40:33 23° ENE
Lacrosse 5 4.0 01:48:39 10° NNW 01:52:37 22° NE 01:54:02 20° ENE
USA 215 3.8 01:48:20 10° NE 01:53:19 49° E 01:53:19 49° E
Cosmos 2082 Rocket 3.4 01:56:18 35° NNW 01:56:18 35° NNW 02:00:11 10° N
CZ-4C R/B 4.4 01:57:08 15° NW 01:58:18 15° NW 02:01:41 10° N
Cosmos 1697 Rocket 3.6 01:55:09 10° NNW 01:59:20 46° NNE 01:59:20 46° NNE
Cosmos 1833 Rocket 3.8 02:05:17 38° NNW 02:05:17 38° NNW 02:09:15 10° N
CZ-2C R/B 4.3 02:11:20 39° NNW 02:11:20 39° NNW 02:14:54 10° NNW
ATLAS 5 CENTAUR R/B 4.4 02:13:59 13° E 02:13:59 13° E 02:15:00 10° ENE
H-2A R/B 3.5 02:14:58 37° E 02:14:58 37° E 02:22:54 10° E
CENTAUR R/B 2.9 02:24:49 52° NW 02:24:49 52° NW 02:30:55 10° NNE
SL-16 R/B 3.9 02:36:59 10° N 02:41:51 29° ENE 02:45:43 14° ESE
OAO 3 Rocket 4.5 02:51:09 34° ENE 02:51:09 34° ENE 02:53:53 10° ENE
Cosmos 1777 Rocket 4.3 02:54:47 66° NE 02:54:47 66° NE 02:59:26 10° NNE
Cosmos 2322 Rocket 3.3 02:49:02 10° N 02:54:16 39° ENE 02:57:05 24° ESE
SL-08 R/B 3.6 03:06:42 66° N 03:06:42 66° N 03:10:54 10° N
CBERS-1 4.1 03:01:35 10° N 03:06:14 73° NNW 03:06:14 73° NNW
Cosmos 1470 Rocket 4.5 03:09:07 44° NNW 03:09:07 44° NNW 03:12:14 10° N
Lacrosse 5 rocket 3.7 03:05:25 10° NNW 03:09:07 25° NE 03:12:55 10° E
Cosmos 1933 Rocket 4.5 03:13:43 42° NNW 03:13:43 42° NNW 03:16:46 10° N
ARIANE 5 R/B 3.3 03:10:14 10° NNE 03:15:04 43° E 03:15:49 40° ESE
ADEOS 3.4 03:14:06 10° NNE 03:19:21 88° WNW 03:19:29 85° SW
ERS-2 4.4 03:16:26 10° NNW 03:17:48 19° NNW 03:17:48 19° NNW
Cosmos 1980 Rocket 3.3 03:18:52 10° NW 03:22:16 31° WNW 03:22:16 31° WNW
CZ-2D R/B 3.2 03:19:55 10° NNE 03:24:46 37° E 03:26:39 28° SE
Cosmos 2360 Rocket 4.3 03:20:15 10° N 03:24:48 25° ENE 03:29:20 10° ESE
SL-16 R/B 3.5 03:23:19 10° SE 03:29:11 44° ENE 03:35:05 10° N
NPP 4.4 03:27:33 10° N 03:32:28 37° WNW 03:32:33 37° WNW
Meteor 1-4 Rocket 4.2 03:30:58 10° NNW 03:32:59 29° NNW 03:32:59 29° NNW
Cosmos 2219 4.3 03:32:52 27° SSE 03:35:08 37° ESE 03:40:23 10° NE
Lacrosse 5 3.3 03:30:53 10° NW 03:33:04 25° WNW 03:33:04 25° WNW
USA 215 4.3 03:31:44 10° NNE 03:37:29 35° NW 03:40:39 23° W
FALCON 9 R/B 3.3 03:42:33 13° ENE 03:42:33 13° ENE 03:42:54 10° ENE
Cosmos 1709 Rocket 4.3 03:43:51 45° WSW 03:44:59 49° W 03:51:03 10° N
Meteor 2-10 4.5 03:40:35 10° NNW 03:45:29 44° W 03:45:29 44° W
Okean O Rocket 3.5 03:45:59 10° NE 03:49:40 26° E 03:52:25 15° SE
Cosmos 1455 3.5 03:46:47 10° NNW 03:48:57 28° NW 03:48:57 28° NW
Cosmos 2112 Rocket 4.4 03:45:55 10° N 03:51:03 62° ENE 03:56:11 10° SSE
Cosmos 1862 Rocket 4.4 03:47:59 10° NNW 03:51:20 35° WNW 03:51:20 35° WNW
SEDSat Delta rocket 3.9 03:50:58 31° W 03:54:26 77° S 04:01:04 10° ESE
ATLAS 5 CENTAUR R/B 2.2 03:55:32 44° W 03:56:26 50° NW 04:01:25 10° NNE
Cosmos 1833 4.4 04:04:22 39° SW 04:06:17 57° WNW 04:11:58 10° NNE
Cosmos 304 Rocket 3.7 04:01:54 10° NNW 04:06:45 89° W 04:10:25 17° SSE
Cosmos 1626 4.3 04:09:24 15° WNW 04:09:24 15° WNW 04:10:52 10° NW
Cosmos 2221 Rocket 3.5 04:05:44 10° N 04:10:14 73° W 04:12:03 35° S
Cosmos 1869 Rocket 3.7 04:12:15 45° SW 04:13:09 54° W 04:17:28 10° N
UNKNOWN OBJECT B 2.6 04:11:15 10° N 04:15:06 86° WNW 04:16:20 42° SSW
Resurs 1-4 Rocket 2.2 04:12:20 10° N 04:17:36 63° WNW 04:20:07 31° SW
ISS -1.0 04:14:55 10° NNW 04:17:44 27° NE 04:20:34 10° E
Cosmos 2298 Rocket 4.0 04:16:25 33° SSW 04:18:49 71° WNW 04:24:09 10° NNE
H-2A ROCKET BODY 1.6 04:18:25 39° SW 04:19:06 44° SSW 04:21:30 10° ESE
ATLAS 2A CENTAUR R/B 3.9 04:17:51 26° SW 04:22:54 61° SSE 05:14:46 10° E
CZ-2C R/B 4.3 04:21:15 10° SSE 04:25:37 57° ENE 04:30:04 10° N
SL-16 R/B 2.9 04:20:55 10° NW 04:25:53 32° WSW 04:27:29 27° SW
UNK 3.8 04:25:23 24° S 04:27:57 55° W 04:32:26 10° NNW
OAO 1 Rocket 4.4 04:24:49 15° W 04:29:13 65° SSW 04:34:31 10° ESE
Meteor 2-3 Rocket 3.7 04:27:25 18° S 04:31:50 84° W 04:37:40 10° N
OAO 3 Rocket 3.3 04:28:58 14° WNW 04:32:55 73° N 04:37:38 10° E
ASTRO F (AKARI) 4.2 04:31:34 15° SSE 04:34:15 90° N 04:37:29 10° NNW
Cosmos 990 Rocket 4.4 04:30:13 14° S 04:34:35 62° ESE 04:39:41 10° NNE
EO 1 Del DPAF 4.2 04:34:36 27° WSW 04:34:48 27° W 04:38:10 10° NW
SL-24 DEB 4.1 04:32:16 10° N 04:36:56 81° W 04:40:46 15° S
ATLAS CENTAUR R/B 3.4 04:33:22 10° N 04:37:31 33° NE 04:41:22 10° ESE
Cosmos 2322 Rocket 3.3 04:33:45 10° NW 04:37:58 22° W 04:38:48 21° WSW
USA 229 DEB 3.9 04:33:33 23° SW 04:38:05 63° WNW 04:45:01 10° NNE
Coronas F rocket 4.1 04:36:09 10° SE 04:38:09 18° E 04:40:08 10° NE
USA 229 3.8 04:33:38 23° SW 04:38:11 64° WNW 04:45:08 10° NNE
Cosmos 1680 Rocket 4.1 04:33:47 10° NW 04:38:29 35° W 04:41:37 18° SSW
CZ-2D R/B 3.5 04:36:11 10° N 04:40:15 59° WNW 04:42:37 23° SSW
Cosmos 2341 Rocket 4.2 04:35:23 10° S 04:41:37 73° E 04:47:57 10° N
GPS 2-05 Rocket1 3.5 04:40:06 16° WNW 04:42:30 50° N 04:45:52 10° ENE
Centaur AC-125 3.6 04:42:08 15° S 04:42:52 17° SSE 04:45:29 10° ESE
Cosmos 1733 Rocket 3.0 04:42:11 12° S 04:46:12 85° E 04:50:35 10° N
SME Rocket 4.0 04:38:55 10° S 04:46:38 75° WSW 04:51:42 10° NNW
CZ-4B R/B 3.2 04:42:41 10° NNE 04:46:47 70° ESE 04:51:03 10° S
PSLV R/B 3.9 04:43:19 10° N 04:47:14 63° WNW 04:50:10 18° SSW
Cosmos 2219 Rocket 4.4 04:42:38 10° N 04:47:23 28° ENE 04:52:05 10° ESE
Lacrosse 5 rocket 2.1 04:44:21 10° WNW 04:48:27 36° WSW 04:52:38 10° S
Thor Agena Rocket 3.7 04:45:21 10° SSE 04:50:38 85° ENE 04:55:57 10° NNW
Cosmos 220 Rocket 3.9 04:49:22 14° SSW 04:52:57 88° ESE 04:57:15 10° NNE
GOES 2 Rocket 3.7 04:50:59 20° SW 04:53:34 37° S 04:57:26 10° ESE
ARIANE 5 R/B 4.2 04:50:27 10° NNW 04:53:47 18° WNW 04:56:10 13° W
IRS-1C Rocket 4.4 04:49:22 10° N 04:54:28 50° WNW 04:58:49 14° SW
Sich 1 Rocket 3.9 04:53:30 10° S 04:57:51 67° E 05:02:12 10° NNE
Cosmos 389 Rocket 2.5 04:54:18 10° N 04:58:01 86° W 05:01:41 10° S
Cosmos 2154 Rocket 4.1 04:52:09 10° SSW 04:58:23 64° W 05:04:42 10° N
NOSS 3-1 (A) 4.3 04:53:20 10° S 04:58:46 44° ESE 05:04:36 10° NE
Nadezhda 3 Rocket 3.9 04:53:59 10° N 05:00:09 82° W 05:06:18 10° S
Cosmos 1782 3.9 04:57:45 10° N 05:01:39 47° E 05:05:28 10° SSE
Cosmos 1898 Rocket 4.5 05:00:57 15° WSW 05:04:25 30° WNW 05:08:58 10° N
CZ-2D R/B 3.5 05:00:36 10° NNW 05:04:34 22° WNW 05:07:59 12° WSW
SL-8 Rocket 4.5 04:59:15 10° S 05:05:21 64° E 05:11:32 10° NNE
Cosmos 1356 Rocket 4.1 05:01:37 10° S 05:05:38 55° E 05:09:38 10° NNE
Cosmos 2227 Rocket 2.8 05:01:24 10° S 05:06:55 58° ESE 05:12:27 10° NNE
Cosmos 2360 Rocket 2.7 05:03:41 10° NW 05:08:49 37° WSW 05:13:57 10° S
Cosmos 1125 Rocket 4.2 05:04:34 10° S 05:09:40 55° ESE 05:14:50 10° NNE
Cosmos 1937 Rocket 4.2 05:07:56 13° SW 05:12:18 37° WNW 05:17:13 10° N
SL-16 R/B 3.6 05:08:01 10° SSW 05:12:54 24° W 05:17:49 10° NW
Okean 1-7 4.5 05:11:04 10° NW 05:14:12 19° W 05:17:13 10° SW
Cosmos 1295 Rocket 4.5 05:09:24 10° S 05:15:30 86° W 05:21:42 10° N
CZ-4B R/B 3.6 05:10:46 10° N 05:15:59 47° WNW 05:21:17 10° SW
Cosmos 1340 Rocket 2.8 05:14:32 10° SSW 05:18:33 65° W 05:22:33 10° N
Iridium 4 Rocket 3.4 05:14:57 10° N 05:19:11 68° E 05:23:17 10° S
Cosmos 2219 4.5 05:14:49 11° WSW 05:19:19 25° WNW 05:24:01 10° N
Cosmos 1606 4.2 05:15:46 10° N 05:19:21 39° E 05:22:54 10° SSE
Cosmos 1908 Rocket 3.6 05:16:19 10° S 05:20:45 89° WNW 05:25:10 10° N
Cosmos 2333 4.2 05:15:13 10° NNW 05:20:54 89° WSW 05:26:36 10° SSE
Meteor 2-10 Rocket 3.5 05:20:33 10° NNW 05:25:34 61° W 05:30:43 10° S
Okean O Rocket 3.0 05:22:28 10° NNW 05:25:52 22° WNW 05:29:14 10° WSW
Cosmos 1674 Rocket 3.8 05:29:01 10° NNW 05:33:11 49° W 05:37:21 10° SSW
MOZ.5/SAFIR/RUBIN 5/SL-8 4.2 05:29:16 10° SSW 05:33:38 40° W 05:38:05 10° NNW
